Regional Weather Roundup
Issued by NWS

Home | Current Version | Previous Version | Text Only | Print | Product List | Glossary Off
Versions: 1 2 3 4 5 6 7 8 9 10 11 12 13 14 15 16 17 18 19 20 21 22 23 24 25 26 27 28 29 30 31 32 33 34 35 36 37 38 39 40 41 42 43 44 45 46 47 48 49 50

000
ASUS43 KOAX 250002
RWRNE

WEATHER ROUNDUP FOR NEBRASKA
NATIONAL WEATHER SERVICE OMAHA NE
700 PM CDT MON JUL 24 2017

NOTES: SATELLITE DATA IS BEING USED TO AUGMENT CLOUD COVER ABOVE
       12000 FEET.
       "FAIR" INDICATES FEW OR NO CLOUDS BELOW 12,000 FEET WITH NO
       SIGNIFICANT WEATHER AND/OR OBSTRUCTIONS TO VISIBILITY.


NEZ001>004-019>022-054>056-250100-
NEBRASKA PANHANDLE

CITY           SKY/WX    TMP DP  RH WIND       PRES   REMARKS
SCOTTSBLUFF    SUNNY     98  43  15 NW6       29.88S HX  94
6HR MIN TEMP:  94; 6HR MAX TEMP: 103;

ALLIANCE       SUNNY     99  33  10 SW12      29.86S HX  93
6HR MIN TEMP:  96; 6HR MAX TEMP: 103;

CHADRON        SUNNY    104  29   7 VRB7      29.79F HX  97
6HR MIN TEMP:  97; 6HR MAX TEMP: 105;

GORDON         FAIR      98  43  15 CALM      29.83S HX  94
6HR MIN TEMP:  91; 6HR MAX TEMP:  99;

KIMBALL        CLOUDY    91  49  24 S8        29.98S
SIDNEY         MOSUNNY   86  56  35 E9        29.95S
6HR MIN TEMP:  84; 6HR MAX TEMP: 101; 6HR PCP:  0.02;

$$

NEZ057>060-069>072-079>082-250100-
SOUTHWEST NEBRASKA

CITY           SKY/WX    TMP DP  RH WIND       PRES   REMARKS
NORTH PLATTE   SUNNY     92  54  27 S10       29.88R HX  90
6HR MIN TEMP:  92; 6HR MAX TEMP:  99;

IMPERIAL       SUNNY     95  54  25 S17G30    29.90S HX  93
6HR MIN TEMP:  94; 6HR MAX TEMP:  99;

LEXINGTON      SUNNY     90  69  50 SE12      29.90F HX  94
MCCOOK         SUNNY     97  52  21 S17G29    29.89F HX  94
6HR MIN TEMP:  96; 6HR MAX TEMP: 101;

OGALLALA       MOSUNNY   91  56  29 S3        29.92R
$$

NEZ005>010-023>029-035>040-094-250100-
NORTH CENTRAL NEBRASKA

CITY           SKY/WX    TMP DP  RH WIND       PRES   REMARKS
VALENTINE      MOSUNNY  101  46  15 S24G35    29.75F HX  97
6HR MIN TEMP: 100; 6HR MAX TEMP: 106;

AINSWORTH      SUNNY     96  59  28 S30G36    29.81S HX  96
BROKEN BOW     SUNNY     92  64  39 S21G30    29.89F HX  93
6HR MIN TEMP:  91; 6HR MAX TEMP:  95;

O`NEILL        SUNNY     90  70  52 S15G26    29.85F HX  95
ORD            SUNNY     90  65  43 S14G28    29.88F HX  92
6HR MIN TEMP:  88; 6HR MAX TEMP:  93;

THEDFORD       SUNNY     99  48  17 S21G31    29.86R HX  96
$$

NEZ041-046>049-061>064-073>077-083>087-250100-
SOUTH CENTRAL NEBRASKA

CITY           SKY/WX    TMP DP  RH WIND       PRES   REMARKS
GRAND ISLAND   SUNNY     88  73  61 SE13      29.93F HX  95
6HR MIN TEMP:  84; 6HR MAX TEMP:  90;

AURORA         SUNNY     87  70  58 SE12      29.93S HX  91
HASTINGS       SUNNY     88  70  55 SE14      29.93F HX  93
6HR MIN TEMP:  85; 6HR MAX TEMP:  92;

HEBRON         SUNNY     91  67  46 SE12      29.92F HX  94
HOLDREGE       SUNNY     89  68  50 SE8       29.91F HX  92
KEARNEY        SUNNY     90  71  53 SE13      29.92F HX  96
YORK           SUNNY     88  73  62 SE7       29.93F HX  96
$$

NEZ011>018-030>034-042>045-250100-
NORTHEAST NEBRASKA

CITY           SKY/WX    TMP DP  RH WIND       PRES   REMARKS
NORFOLK        SUNNY     86  66  51 S16       29.92F
6HR MIN TEMP:  83; 6HR MAX TEMP:  89;

ALBION         SUNNY     88  71  57 SE13      29.92F HX  94
BLAIR          SUNNY     83  67  57 SE9       29.96S
COLUMBUS       SUNNY     86  69  56 SE9       29.94S HX  90
FREMONT        SUNNY     84  65  53 SE13      29.96S
TEKAMAH        SUNNY     83  66  56 SE12      29.95S
6HR MIN TEMP:  80; 6HR MAX TEMP:  86;

WAYNE          SUNNY     84  67  56 S15G22    29.93F
$$

NEZ050>053-065>068-078-088>093-250100-
SOUTHEAST NEBRASKA

CITY           SKY/WX    TMP DP  RH WIND       PRES   REMARKS
LINCOLN        SUNNY     87  68  52 SE12      29.94F HX  90
6HR MIN TEMP:  83; 6HR MAX TEMP:  89;

OMAHA EPPLEY   MOSUNNY   85  65  51 SE14      29.96S
6HR MIN TEMP:  82; 6HR MAX TEMP:  87;

BEATRICE       SUNNY     89  69  51 SE10      29.93F HX  94
FALLS CITY     SUNNY     83  68  60 SE8       29.95F
6HR MIN TEMP:  82; 6HR MAX TEMP:  87;

NEBRASKA CITY  MOSUNNY   80  70  71 SE7       29.97S
PLATTSMOUTH    SUNNY     82  67  60 E9        29.97S
$$

NEZ044-045-051>053-067-250100-
OMAHA AREA

CITY           SKY/WX    TMP DP  RH WIND       PRES   REMARKS
OMAHA EPPLEY   MOSUNNY   85  65  51 SE14      29.96S
6HR MIN TEMP:  82; 6HR MAX TEMP:  87;

BLAIR          SUNNY     83  67  57 SE9       29.96S
FREMONT        SUNNY     84  65  53 SE13      29.96S
MILLARD        SUNNY     85  70  60 SE10      29.96S
OFFUTT AFB     SUNNY     84  66  55 SE13      29.96S
PLATTSMOUTH    SUNNY     82  67  60 E9        29.97S
WAHOO          FAIR      83  67  57 SE12      29.95S
$$




USA.gov is the U.S. government's official web portal to all federal, state and local government web resources and services.